Flag for South Korea Weather past 2 weeks in Busan, South Korea

Now
46 °F

Broken clouds.


Feels Like: 41 °F
Forecast: 32 / 43 °F
Wind: 13 mph from East

Location: Pusan / Kimhae International Airport

Current Time: Jan 29, 2015 at 1:50:37 PM

Latest Report: Jan 29, 2015 at 1:00 PM


Visibility: N/A

Pressure: 30.24 "Hg

Humidity: 53%

Dew point: 30 °F

Location of BusanLocation

Historic Weather in Busan — Graph

°F

Busan temperature yesterday

Maximum temperature yesterday: 43 °F (at 2:00 PM)
Minimum temperature yesterday: 30 °F (at 4:00 AM)
Average temperature yesterday: 36 °F

Past Weeks' High & Low Weather Summary

 TemperatureHumidityPressure
High55 °F (Jan 26, 4:00 PM)94% (Jan 26, 9:00 AM)30.38 "Hg (Jan 26, 9:00 AM)
Low28 °F (Jan 16, 5:00 AM)16% (Jan 17, 4:00 PM)29.95 "Hg (Jan 22, 6:00 AM)
Average41 °F63%30.18 "Hg
* Reported Jan 14 1:00 PM — Jan 29 1:00 PM, Busan, Weather by CustomWeather, © 2014

Note: Actual official high and low records may vary slightly from our data, if they occured in-between our weather recording intervals... More about our weather records

Advertising

Busan weather history for previous 24 hours

 ConditionsComfort  
Time TempWeatherWind HumidityBarometerVisibility
1:00 PM
Jan 29
46 °FBroken clouds.13 mph53%30.24 "HgN/A
12:00 PM45 °FBroken clouds.7 mph57%30.27 "HgN/A
11:00 AM43 °FBroken clouds.3 mph66%30.33 "HgN/A
10:00 AM39 °FPartly sunny.2 mph70%30.33 "HgN/A
9:00 AM36 °FSunny.5 mph81%30.36 "Hg10 mi
8:00 AM36 °FBroken clouds.2 mph75%30.36 "HgN/A
7:03 AM34 °FPassing clouds.6 mph81%30.36 "HgN/A
7:00 AM34 °FClear.5 mph81%30.33 "Hg10 mi
6:00 AM34 °FClear.5 mph81%30.36 "Hg10 mi
5:00 AM34 °FClear.3 mph81%30.36 "Hg10 mi
1:00 AM32 °FPassing clouds.5 mph87%30.37 "HgN/A
11:00 PM
Jan 28
34 °FClear.1 mph75%30.36 "Hg10 mi
10:00 PM34 °FPassing clouds.6 mph75%30.36 "HgN/A
9:00 PM36 °FPassing clouds.7 mph75%30.33 "HgN/A
8:00 PM37 °FPassing clouds.7 mph70%30.33 "HgN/A
7:00 PM39 °FPassing clouds.10 mph70%30.33 "HgN/A
6:00 PM39 °FPassing clouds.12 mph65%30.30 "HgN/A
5:00 PM43 °FPartly sunny.10 mph57%30.30 "HgN/A
4:00 PM43 °FPartly sunny.10 mph57%30.27 "HgN/A
3:00 PM43 °FPartly sunny.10 mph49%30.24 "HgN/A
2:00 PM43 °FBroken clouds.8 mph49%30.24 "HgN/A
1:00 PM41 °FScattered clouds.8 mph36%30.27 "HgN/A
Weather by CustomWeather, © 2014

See weather overviewHow to use our weather pages